Regional Weather Roundup
Issued by NWS Sioux Falls, SD

Home | Current Version | Previous Version | Text Only | Print | Product List | Glossary On
Versions: 1 2 3 4 5 6 7 8 9 10 11 12 13 14 15 16 17 18 19 20 21 22 23 24 25 26 27 28 29 30 31 32 33 34 35 36 37 38 39 40 41 42 43 44 45 46 47 48 49 50
000
ASUS43 KFSD 221102
RWRFSD

WEATHER ROUNDUP FOR SE SOUTH DAKOTA/SW MINNESOTA/NW IOWA
NATIONAL WEATHER SERVICE SIOUX FALLS SD
600 AM CDT MON SEP 22 2014

NOTE: "FAIR" INDICATES FEW OR NO CLOUDS BELOW 12,000 FEET WITH NO
SIGNIFICANT WEATHER AND OR OBSTRUCTIONS TO VISIBILITY.


SDZ038>040-050-052>070-221200-
SOUTHEAST SOUTH DAKOTA

CITY           SKY/WX    TMP DP  RH WIND       PRES   REMARKS
CHAMBERLAIN    CLEAR     45  42  88 S3        30.24F
HURON          CLEAR     44  41  89 SE5       30.24S
MADISON        FAIR      46  46 100 S7        30.27S
MITCHELL       CLEAR     44  42  93 S3        30.26S
SIOUX FALLS    CLEAR     45  43  93 CALM      30.27F
WINNER         FAIR      52  43  71 S12       30.23F
YANKTON          N/A     45  43  93 CALM      30.28F VSB 3/4
$$

MNZ071-072-080-081-089-090-097-098-221200-
SOUTHWEST MINNESOTA

CITY           SKY/WX    TMP DP  RH WIND       PRES   REMARKS
FAIRMONT       CLEAR     43  37  81 W6        30.28R
JACKSON        CLEAR     45  43  93 CALM      30.29R
LUVERNE        CLOUDY    41  39  93 CALM      30.29S FOG
MARSHALL       CLEAR     50  45  81 SW9       30.25R
MONTEVIDEO     CLEAR     46  43  87 W5        30.26R
PIPESTONE      CLEAR     43  43 100 SW3       30.28S
REDWOOD FALLS  CLEAR     44  42  93 CALM      30.26R
TRACY          CLEAR     49  46  89 CALM      30.27R
WINDOM           N/A     41  39  93 CALM      30.29R
WORTHINGTON    CLEAR     46  45  93 SW7       30.30R
$$

IAZ001>003-012>014-020>022-031-032-NEZ013-014-SDZ071-221200-
NORTHWEST IOWA

CITY           SKY/WX    TMP DP  RH WIND       PRES   REMARKS
CHEROKEE       CLEAR     42  42 100 CALM      30.30S FOG
DENISON        CLEAR     45  45 100 E5        30.29S
ESTHERVILLE    CLEAR     41  40  96 SW6       30.29R
LE MARS          N/A     43  43 100 CALM      30.29F
ORANGE CITY    CLEAR     48  45  87 CALM      30.29S
SHELDON        CLEAR     41  41 100 CALM      30.28S
SIOUX CITY     CLEAR     46  44  93 E3        30.30R
SPENCER        CLEAR     42  40  92 CALM      30.29S
$$

ABBREVIATIONS USED IN REMARKS
   TC - TEMPERATURE IN CELSIUS
  WCI - WIND CHILL INDEX
   HX - HEAT INDEX
  VSB - VISIBILITY



USA.gov is the U.S. government's official web portal to all federal, state and local government web resources and services.